Laredo, TX

2:02 PM CDT on October 01, 2016 (GMT -0500)
Laredo International

Weather History for KLRD - October, 2011

Change the Weather History Date:

Saturday, October 22, 2011

  Actual Average Record
Temperature  
Mean Temperature 81 °F 74 °F  
Max Temperature 92 °F 85 °F 98 °F (1994)
Min Temperature 69 °F 64 °F 40 °F (1910)
Degree Days  
Heating Degree Days 0 0  
Month to date heating degree days 0 0  
Since 1 July heating degree days 0 1  
Cooling Degree Days 16 10  
Month to date cooling degree days 309 267  
Year to date cooling degree days 5383 4052  
Growing Degree Days 29 (Base 50)    
Moisture  
Dew Point 60 °F    
Average Humidity 55    
Maximum Humidity 81    
Minimum Humidity 31    
Precipitation  
Precipitation 0.00 in 0.06 in 3.77 in (1997)
Month to date precipitation 0.41 1.73  
Year to date precipitation 4.21 17.65  
Sea Level Pressure  
Sea Level Pressure 29.98 in    
Wind  
Wind Speed 13 mph (SSE)    
Max Wind Speed 23 mph    
Max Gust Speed 28 mph    
Visibility 10 miles    
Events      
T = Trace of Precipitation, MM = Missing Value Source: NWS Daily Summary

Daily Weather History Graph

Daily Weather History Graph

Search for Another Location

Airport or City:

Trip Planner

Search our weather history database for the weather conditions in past years. The results will help you decide how hot, cold, wet, or windy it might be!

Date:

Astronomy

Oct. 22, 2011 Rise Set
Actual Time 7:41 AM CDT 7:02 PM CDT
Civil Twilight 7:18 AM CDT 7:26 PM CDT
Nautical Twilight 6:50 AM CDT 7:53 PM CDT
Astronomical Twilight 6:23 AM CDT 8:20 PM CDT
Moon 3:06 AM CDT (10/22) 4:00 PM CDT (10/22)
Length of Visible Light 12h 08m
Length of Day
11h 20m
Waning Crescent, 23% of the Moon is Illuminated
Oct 22
Waning Crescent
Oct 26
New
Nov 2
First Quarter
Nov 10
Full
Nov 18
Last Quarter

Hourly Weather History & Observations

Time (CDT) Temp. Heat Index Dew Point Humidity Pressure Visibility Wind Dir Wind Speed Gust Speed Precip Events Conditions
12:56 AM 74.8 °F - 63.0 °F 66% 30.02 in 10.0 mi SSE 15.0 mph - N/A   Clear
1:56 AM 73.4 °F - 62.6 °F 69% 30.05 in 10.0 mi SSE 13.8 mph - N/A   Clear
2:56 AM 72.9 °F - 63.0 °F 71% 30.01 in 10.0 mi South 10.4 mph - N/A   Clear
3:56 AM 72.0 °F - 63.0 °F 73% 30.01 in 10.0 mi SE 8.1 mph - N/A   Clear
4:56 AM 70.0 °F - 63.0 °F 78% 30.00 in 10.0 mi SE 5.8 mph - N/A   Clear
5:56 AM 70.0 °F - 63.0 °F 78% 30.01 in 10.0 mi SE 11.5 mph - N/A   Clear
6:56 AM 68.9 °F - 63.0 °F 81% 30.01 in 10.0 mi SE 11.5 mph - N/A   Clear
7:56 AM 68.9 °F - 63.0 °F 81% 30.03 in 10.0 mi SE 12.7 mph - N/A   Clear
8:56 AM 72.0 °F - 63.0 °F 73% 30.03 in 10.0 mi SSE 15.0 mph - N/A   Clear
9:56 AM 75.9 °F - 63.0 °F 64% 30.04 in 10.0 mi South 17.3 mph - N/A   Clear
10:56 AM 79.9 °F - 61.9 °F 54% 30.04 in 10.0 mi South 21.9 mph - N/A   Clear
11:56 AM 83.8 °F 84.3 °F 61.9 °F 47% 30.03 in 10.0 mi South 19.6 mph - N/A   Clear
12:56 PM 86.0 °F 86.6 °F 62.6 °F 45% 30.04 in 10.0 mi South 13.8 mph 20.7 mph N/A   Clear
1:56 PM 88.9 °F 88.5 °F 59.9 °F 38% 29.98 in 10.0 mi South 13.8 mph 18.4 mph N/A   Clear
2:56 PM 90.0 °F 89.1 °F 59.0 °F 35% 29.95 in 10.0 mi SSE 8.1 mph - N/A   Clear
3:56 PM 89.6 °F 87.7 °F 55.4 °F 31% 29.95 in 10.0 mi SSE 12.7 mph - N/A   Clear
4:56 PM 90.9 °F 89.2 °F 55.9 °F 31% 29.91 in 10.0 mi SSE 12.7 mph - N/A   Clear
5:56 PM 88.9 °F 87.3 °F 55.9 °F 33% 29.91 in 10.0 mi SE 12.7 mph - N/A   Clear
6:56 PM 86.9 °F 85.5 °F 55.9 °F 35% 29.91 in 10.0 mi SE 11.5 mph - N/A   Clear
7:56 PM 83.8 °F 83.1 °F 56.8 °F 40% 29.91 in 10.0 mi SE 9.2 mph - N/A   Clear
8:56 PM 82.9 °F 82.6 °F 57.9 °F 42% 29.92 in 10.0 mi SSE 15.0 mph - N/A   Clear
9:56 PM 81.0 °F 81.0 °F 56.8 °F 44% 29.93 in 10.0 mi SE 17.3 mph - N/A   Clear
10:56 PM 79.0 °F - 59.9 °F 52% 29.95 in 10.0 mi SSE 13.8 mph 23.0 mph N/A   Clear
11:56 PM 75.9 °F - 61.9 °F 62% 29.95 in 10.0 mi SSE 16.1 mph - N/A   Clear